Regional Weather Roundup
Issued by NWS Upton, NY

Current Version | Previous Version | Text Only | Print | Product List | Glossary On
Versions: 1 2 3 4 5 6 7 8 9 10 11 12 13 14 15 16 17 18 19 20 21 22 23 24 25 26 27
000 ASUS41 KOKX 251909 RWROKX REGIONAL WEATHER ROUNDUP NATIONAL WEATHER SERVICE NEW YORK NY 300 PM EDT TUE APR 25 2017 NOTE: "FAIR" INDICATES FEW OR NO CLOUDS BELOW 12,000 FEET WITH NO SIGNIFICANT WEATHER AND/OR OBSTRUCTIONS TO VISIBILITY. NYZ071-072-176-178-NJZ106-104-252000- NEW YORK CITY METRO AREA CITY SKY/WX TMP DP RH WIND PRES REMARKS Central Park CLOUDY 53 52 96 E20G29 30.03F Wall St Helipt CLOUDY 55 52 89 NE20G31 29.99F Bronx Bot Gard N/A 54 52 94 E7 30.03F LaGuardia APRT CLOUDY 54 51 90 NE22 30.00F Kennedy INTL LGT RAIN 57 54 89 NE21 29.99F Breezy Point N/A 55 N/A N/A NE16G25 N/A Newark/Liberty LGT RAIN 55 52 89 NE20 29.99F Teterboro LGT RAIN 57 53 86 E21G32 29.99F $$ NYZ177-179-078>081-252000- LONG ISLAND NEW YORK CITY SKY/WX TMP DP RH WIND PRES REMARKS Jones Beach N/A 54 N/A N/A NE20 N/A Matinecock PT NOT AVBL Farmingdale CLOUDY 55 54 96 NE16G24 30.00F MacArthur/ISP LGT RAIN 54 53 97 NE20G28 30.01F FOG Shirley LGT RAIN 53 52 96 MISG 30.04F Mt Sinai Harb N/A N/A N/A N/A E12G18 N/A Westhampton LGT RAIN 53 50 89 NE15G24 30.05F East Hampton CLOUDY 50 49 95 NE16G30 30.06F Montauk NOT AVBL $$ NYZ052-065-067-252000- HUDSON VALLEY CITY SKY/WX TMP DP RH WIND PRES REMARKS White Plains LGT RAIN 55 53 93 E10G20 30.02F Larchmont Harb N/A 48 N/A N/A NE23 N/A Croton O-T Hud N/A 57 N/A N/A NE6G12 N/A Newburgh CLOUDY 54 52 94 NE12 30.07F FOG Montgomery LGT RAIN 53 50 89 NE14 30.04F FOG Poughkeepsie CLOUDY 54 52 93 NW7 30.06F Albany CLOUDY 53 47 79 N7 30.14F $$ NJZ001-105-106-008-010-013-015-019>022-104-252000- NEW JERSEY CITY SKY/WX TMP DP RH WIND PRES REMARKS Newark/Liberty LGT RAIN 55 52 89 NE20 29.99F Teterboro LGT RAIN 57 53 86 E21G32 29.99F Caldwell LGT RAIN 56 53 90 E15 30.00F FOG Somerville CLOUDY 59 53 80 NE12G26 29.94F Linden DRIZZLE 56 53 88 E20G26 29.98F Sussex CLOUDY 53 51 93 NE12G20 30.01F Andover N/A 53 51 93 VRB5 29.99F Trenton LGT RAIN 56 55 97 NE17G24 29.91F FOG Millville HVY RAIN 59 59 100 NE10 29.80F FOG Atlantic City LGT RAIN 56 54 93 NE23G30 29.82F FOG Wrightstown LGT RAIN 54 52 94 NE17 29.88F FOG Toms River HVY RAIN 52 51 97 NE17G25 29.92F FOG Belmar LGT RAIN 50 48 93 NE23G30 29.95F FOG $$ PAZ047>061-062-071-252000- EASTERN PENNSYLVANIA CITY SKY/WX TMP DP RH WIND PRES REMARKS Philadelphia LGT RAIN 57 54 89 NE18G29 29.87F FOG Allentown CLOUDY 58 51 78 NE16G23 29.94F Scranton CLOUDY 56 50 80 NE10G17 29.98F $$ CTZ002-004>006-009-010-012-RIZ004-006-007-MAZ004-011-015-252000- SOUTHERN NEW ENGLAND IN CT CITY SKY/WX TMP DP RH WIND PRES REMARKS Bradley INTL RAIN 53 49 86 NE14 30.15R FOG Hartford LGT RAIN 55 51 86 NE8 30.13R Danbury LGT RAIN 53 52 96 NE12 30.07F Wtrbury/Oxford LGT RAIN 52 46 82 NE13G23 30.09F FOG Bridgeport LGT RAIN 57 53 86 NE13 30.05F Meriden LGT RAIN 56 52 86 VRB6 30.11S FOG New Haven LGT RAIN 56 53 90 NE15 30.06F Chester LGT RAIN 54 52 94 NE10 30.09F Groton LGT RAIN 54 51 90 NE20G26 30.08F Wilimantic HVY RAIN 52 49 89 NE16G23 30.14S FOG IN RI CITY SKY/WX TMP DP RH WIND PRES REMARKS Providence RAIN 50 49 96 NE15 30.18F FOG Block Island LGT RAIN 49 49 100 NE17G24 30.10F FOG Westerly LGT RAIN 53 51 93 NE12G20 30.11F IN MA CITY SKY/WX TMP DP RH WIND PRES REMARKS Boston RAIN 46 45 96 NE18G26 30.24F FOG Worcester LGT RAIN 45 42 89 NE8G21 30.19S Westfield CLOUDY 52 49 89 N14 30.15F Provincetown LGT RAIN 48 46 93 E15G21 30.20F Nantucket LGT RAIN 51 49 92 E21G30 30.12F FOG $$ ANZ330-335-338-340-345-350-353-355-252000- COASTAL MARINE OBSERVATIONS STATION/POSITION TIME SKY/WX TEMP WIND PRES VSBY WAVE AIR SEA DIR/SP/G HT/PER (UTC) (F) (DEG/KT/KT) (MB) (MI) (FT/S) NY HARB ENTRANCE 1750 49 48 60/ 25/ 29 1015.2 7/ 6 20 S FIRE ISLAND 1850 48 47 60/ 25/ 31 1013.7 8/ 6 GREAT SOUTH BAY 1830 54 55 60/ 16/ 21 N/A 23 SSW MONTAUK P 1750 47 46 1017.4 7/ 5 15 E BARNEGAT LI 1830 50 N/A 9/ 9 HUDSON CANYON 1750 52 47 90/ 16/ 19 1013.5 8/ 9 KINGS POINT 1848 54 48 100/ 11/ 22 1016.0 EXECUTION ROCKS NOT AVBL CENTRAL LI SOUND 1845 49 60/ 16/ 19 N/A 2/ 4 EASTERN LI SOUND NOT AVBL ROBBINS REEF 1848 55 50/ 25/ 30 1015.0 $$ >>>>>>>>>>>>>>>>>>>>>>>>>>>> KEY <<<<<<<<<<<<<<<<<<<<<<<<<<< > < > SKY/WX - Sky Condition/Present Weather < > TMP - Temperature in Fahrenheit < > DP - Dew Point in Fahrenheit < > RH - Relative Humidity in Percent < > WIND - Direction (from) and Speed in MPH < > PRES - Mean Sea Level Pressure (inches of Hg) < > WCI - Wind Chill Index < > VSB - VISIBILITY IN MILES < > HX - HEAT INDEX < > TC - TEMPERATURE IN CELSIUS < > VRB - VARIABLE WIND DIRECTION < > < >>>>>>>>>>>>>>>>>>>>>>>>>>>> KEY <<<<<<<<<<<<<<<<<<<<<<<<<<<

USA.gov is the U.S. government's official web portal to all federal, state and local government web resources and services.